Weather History for KMIC - April, 2013

Change the Weather History Date:

Tuesday, April 30, 2013

  Actual Average Record
Temperature  
Mean Temperature 63 °F -  
Max Temperature 70 °F 63 °F 82 °F (1992)
Min Temperature 57 °F 40 °F 30 °F (2005)
Degree Days  
Heating Degree Days 2    
Growing Degree Days 13 (Base 50)    
Moisture  
Dew Point 45 °F    
Average Humidity 52    
Maximum Humidity 75    
Minimum Humidity 24    
Precipitation  
Precipitation 0.00 in - - ()
Sea Level Pressure  
Sea Level Pressure 29.61 in    
Wind  
Wind Speed 11 mph (WSW)    
Max Wind Speed 18 mph    
Max Gust Speed 26 mph    
Visibility 10 miles    
Events      
Averages and records for this station are not official NWS values.
T = Trace of Precipitation, MM = Missing Value Source: NWS Daily Summary

Daily Weather History Graph

Daily Weather History Graph

Search for Another Location

Airport or City:

Trip Planner

Search our weather history database for the weather conditions in past years. The results will help you decide how hot, cold, wet, or windy it might be!

Date:

Astronomy

Apr. 30, 2013 Rise Set
Actual Time 6:03 AM CDT 8:18 PM CDT
Civil Twilight 5:31 AM CDT 8:50 PM CDT
Nautical Twilight 4:51 AM CDT 9:30 PM CDT
Astronomical Twilight 4:06 AM CDT 10:15 PM CDT
Moon 12:45 AM CDT (4/30) 10:30 AM CDT (4/30)
Length of Visible Light 15h 19m
Length of Day
14h 14m
Waning Gibbous, 70% of the Moon is Illuminated
Apr 30
Waning Gibbous
May 2
Last Quarter
May 9
New
May 17
First Quarter
May 24
Full

Hourly Weather History & Observations

Time (CDT) Temp. Dew Point Humidity Pressure Visibility Wind Dir Wind Speed Gust Speed Precip Events Conditions
12:53 AM 64.0 °F 54.0 °F 70% 29.50 in 9.0 mi SE 9.2 mph - N/A   Clear
1:53 AM 64.0 °F 54.0 °F 70% 29.47 in 10.0 mi SE 8.1 mph - N/A   Clear
2:53 AM 64.0 °F 54.0 °F 70% 29.45 in 10.0 mi SE 11.5 mph - N/A   Scattered Clouds
3:53 AM 63.0 °F 54.0 °F 72% 29.42 in 10.0 mi SE 12.7 mph - N/A   Clear
4:53 AM 63.0 °F 54.0 °F 72% 29.41 in 10.0 mi SE 11.5 mph - N/A   Scattered Clouds
5:53 AM 63.0 °F 55.0 °F 75% 29.40 in 10.0 mi SSE 13.8 mph - N/A   Clear
6:53 AM 64.9 °F 55.9 °F 73% 29.39 in 10.0 mi South 15.0 mph - N/A   Clear
7:53 AM 69.1 °F 57.0 °F 65% 29.41 in 10.0 mi South 11.5 mph - N/A   Clear
8:53 AM 69.1 °F 55.9 °F 63% 29.45 in 10.0 mi WSW 11.5 mph 20.7 mph N/A   Clear
9:53 AM 69.1 °F 48.0 °F 47% 29.49 in - WSW 18.4 mph 26.5 mph N/A   Clear
10:53 AM 64.9 °F 45.0 °F 48% 29.56 in 10.0 mi North - - N/A   Clear
11:53 AM 64.0 °F 44.1 °F 48% 29.60 in 10.0 mi West 11.5 mph 24.2 mph N/A   Clear
1:53 PM 64.9 °F 43.0 °F 45% 29.67 in 10.0 mi NW 13.8 mph 19.6 mph N/A   Partly Cloudy
2:53 PM 64.9 °F 41.0 °F 42% 29.69 in 10.0 mi West 11.5 mph - N/A   Scattered Clouds
4:53 PM 66.9 °F 32.0 °F 27% 29.77 in 10.0 mi West 12.7 mph - N/A   Mostly Cloudy
5:53 PM 66.0 °F 30.9 °F 27% 29.80 in 10.0 mi West 9.2 mph - N/A   Scattered Clouds
6:53 PM 64.9 °F 27.0 °F 24% 29.82 in 10.0 mi West 9.2 mph - N/A   Clear
7:53 PM 62.1 °F 28.9 °F 29% 29.83 in 10.0 mi NW 12.7 mph - N/A   Clear
8:53 PM 59.0 °F 32.0 °F 36% 29.83 in 10.0 mi NW 8.1 mph - N/A   Partly Cloudy
9:53 PM 57.0 °F 34.0 °F 42% 29.88 in 10.0 mi NW 8.1 mph - N/A   Overcast
10:53 PM 57.0 °F 36.0 °F 45% 29.91 in 10.0 mi NW 11.5 mph - N/A   Overcast